Probability
0 0 0 0 0 0 0 0 0 0 0 0 0 0 0 0 0 0 0 0 0 0 0 0 0 0 0 0 0 0 0 0 0 0 0 0 0 0 0 0 0 0 0 0
0 0 0 0 0 0 0 0 0 0 0 0 0 0 0 0 0 0 0 0 0 0 0 0 0 0 0 0 0 0 0 0 0 0 0 0 0 0 0 0 0 0 0 0
0 0 0 0 0 0 0 0 0 0 0 0 0 0 0 0 0 0 0 0 0 0 0 0 0 0 0 0 0 0 0 0 0 0 0 0 0 0 0 0 0 0 0 0
0 0 0 0 0 0 0 0 0 0 0 0 0 0 0 0 0 0 0 0 0 0 0 0 0 0 0 0 0 0 0 0 0 0 0 0 0 0 0 0 0 0 0 0
0 0 0 0 0 0 0 0 0 0 0 0 0 0 0 0 0 0 0 0 0 0 0 0 0 0 0 0 0 0 0 0 0 0 0 0 0 0 0 0 0 0 0 0
0 0 0 0 0 0 0 0 0 0 0 0 0 0 0 0 0 0 0 0 0 0 0 0 0 0 0 0 0 0 0 0 0 0 0 0 0 0 0 0 0 0 0 0
0 0 0 0 0 0 0 0 0 0 0 0 0 0 0 0 0 0 0 0 0 0 0 0 0 0 0 0 0 0 0 0 0 0 0 0 0 0 0 0 0 0 0 0
0 0 0 0 0 0 0 0 0 0 0 0 0 0 0 0 0 0 0 0 0 0 0 0 0 0 0 0 0 0 0 0 0 0 0 0 0 0 0 0 0 0 0 0
0 0 0 0 0 0 0 0 0 0 0 0 0 0 0 0 0 0 0 0 0 0 0 0 0 0 0 0 0 0 0 0 0 0 0 0 0 0 0 0 0 0 0 0
0 0 0 0 0 0 0 0 0 0 0 0 0 0 0 0 0 0 0 0 0 0 0 0 0 0 0 0 0 0 0 0 0 0 0 0 0 0 0 0 0 0 0 0
0 0 0 0 0 0 0 0 0 0 0 0 0 0 0 0 0 0 0 0 0 0 0 0 0 0 0 0 0 0 0 0 0 0 0 0 0 0 0 0 0 0 0 0
0 0 0 0 0 0 0 0 0 0 0 0 0 0 0 0 0 0 0 0 0 0 0 0 0 0 0 0 0 0 0 0 0 0 0 0 0 0 0 0 0 0 0 0
0 0 0 0 0 0 0 0 0 0 0 0 0 0 0 0 0 0 0 0 0 0 0 0 0 0 0 0 0 0 0 0 0 0 0 0 0 0 0 0 0 0 0 0
0 0 0 0 0 0 0 0 0 0 0 0 0 0 0 0 0 0 0 0 0 0 0 0 0 0 0 0 0 0 0 0 0 0 0 0 0 0 0 0 0 0 0 0
0 0 0 0 0 0 0 0 0 0 0 0 0 0 0 0 0 0 0 0 0 0 0 0 0 0 0 0 0 0 0 0 0 0 0 0 0 0 0 0 0 0 0 0
0 0 0 0 0 0 0 0 0 0 0 0 0 0 0 0 0 0 0 0 0 0 0 0 0 0 0 0 0 0 0 0 0 0 0 0 0 0 0 0 0 0 0 0
0 0 0 0 0 0 0 0 0 0 0 0 0 0 0 0 0 0 0 0 0 0 0 0 0 0 0 0 0 0 0 0 0 0 0 0 0 0 0 0 0 0 0 0
0 0 0 0 0 0 0 0 0 0 0 0 0 0 0 0 0 0 0 0 0 0 0 0 0 0 0 0 0 0 0 0 0 0 0 0 0 0 0 0 0 0 0 0
0 0 0 0 0 0 0 0 0 0 0 0 0 0 0 0 0 0 0 0 0 0 0 0 0 0 0 0 0 0 0 0 0 0 0 0 0 0 0 0 0 0 0 0
0 0 0 0 0 0 0 0 0 0 0 0 0 0 0 0 0 0 0 0 0 0 0 0 0 0 0 0 0 0 0 0 0 0 0 0 0 0 0 0 0 0 0 0
0 0 0 0 0 0 0 0 0 0 0 0 0 0 0 0 0 0 0 0 0 0 0 0 0 0 0 0 0 0 0 0 0 0 0 0 0 0 0 0 0 0 0 0
0 0 0 0 0 0 0 0 0 0 0 0 0 0 0 0 0 0 0 0 0 0 0 0 0 0 0 0 0 0 0 0 0 0 0 0 0 0 0 0 0 0 0 0
0 0 0 0 0 0 0 0 0 0 0 0 0 0 0 0 0 0 0 0 0 0 0 0 0 0 0 0 0 0 0 0 0 0 0 0 0 0 0 0 0 0 0 0
0 0 0 0 0 0 0 0 0 0 0 0 0 0 0 0 0 0 0 0 0 0 0 0 0 0 0 0 0 0 0 0 0 0 0 0 0 0 0 0 0 0 0 0
0 0 0 0 0 0 0 0 0 0 0 0 0 0 0 0 0 0 0 0 0 0 0 0 0 0 0 0 0 0 0 0 0 0 0 0 0 0 0 0 0 0 0 0
0 0 0 0 0 0 0 0 0 0 0 0 0 0 0 0 0 0 0 0 0 0 0 0 0 0 0 0 0 0 0 0 0 0 0 0 0 0 0 0 0 0 0 0
0 0 0 0 0 0 0 0 0 0 0 0 0 0 0 0 0 0 0 0 0 0 0 0 0 0 0 0 0 0 0 0 0 0 0 0 0 0 0 0 0 0 0 0
Height
5852 5852 5852 5852 5852 5851 5851 5850 5850 5849 5848 5847 5846 5845 5845 5844 5843 5843 5843 5842 5842 5842 5841 5841 5840 5840 5839 5838 5837 5836 5835 5833 5832 5831 5830 5829 5827 5826 5826 5825 5824 5823 5823 5823
5847 5847 5846 5846 5846 5846 5846 5845 5844 5843 5843 5842 5840 5840 5839 5839 5838 5838 5838 5838 5837 5837 5836 5836 5836 5835 5835 5834 5833 5832 5830 5829 5828 5827 5826 5825 5823 5822 5821 5820 5820 5819 5818 5818
5841 5841 5841 5842 5841 5840 5840 5839 5839 5838 5838 5836 5835 5834 5834 5833 5833 5833 5833 5833 5832 5832 5831 5831 5831 5830 5830 5829 5828 5827 5826 5825 5824 5823 5821 5820 5819 5818 5817 5816 5815 5814 5813 5812
5835 5836 5836 5838 5835 5835 5834 5834 5833 5832 5832 5831 5830 5829 5828 5827 5827 5828 5828 5827 5827 5827 5827 5826 5826 5825 5825 5824 5823 5822 5821 5820 5819 5818 5817 5815 5814 5813 5811 5810 5809 5808 5807 5806
5828 5828 5829 5830 5829 5829 5829 5828 5827 5826 5826 5825 5824 5823 5823 5822 5822 5822 5822 5822 5822 5821 5821 5821 5820 5820 5819 5819 5818 5817 5816 5815 5814 5813 5812 5810 5809 5807 5806 5805 5803 5802 5801 5800
5822 5822 5823 5825 5823 5823 5824 5823 5822 5821 5820 5820 5819 5818 5818 5817 5817 5817 5817 5816 5816 5815 5815 5815 5815 5814 5814 5813 5812 5811 5810 5809 5808 5807 5806 5804 5803 5801 5800 5798 5797 5795 5795 5794
5815 5815 5816 5817 5817 5817 5818 5818 5816 5815 5815 5814 5813 5813 5813 5812 5812 5811 5811 5810 5809 5809 5809 5808 5808 5808 5808 5807 5806 5805 5804 5803 5802 5801 5799 5798 5797 5795 5793 5792 5791 5790 5789 5788
5808 5809 5811 5810 5810 5811 5811 5810 5810 5809 5809 5808 5808 5807 5807 5806 5806 5805 5805 5804 5803 5802 5802 5801 5801 5801 5801 5800 5799 5798 5797 5796 5795 5794 5793 5792 5790 5789 5787 5785 5784 5783 5782 5781
5802 5804 5803 5803 5803 5803 5803 5803 5803 5802 5802 5802 5801 5801 5800 5800 5799 5798 5798 5797 5796 5795 5795 5794 5794 5793 5793 5793 5792 5791 5791 5789 5788 5787 5786 5784 5783 5782 5780 5779 5777 5776 5775 5774
5793 5794 5794 5794 5794 5795 5795 5795 5795 5795 5795 5795 5794 5794 5794 5793 5792 5792 5791 5790 5789 5788 5788 5787 5786 5786 5786 5785 5785 5784 5783 5782 5781 5780 5779 5777 5776 5774 5773 5771 5770 5769 5768 5766
5784 5786 5786 5786 5786 5787 5787 5787 5787 5787 5787 5787 5787 5786 5786 5785 5785 5784 5783 5782 5781 5781 5780 5780 5779 5778 5778 5778 5777 5777 5776 5775 5774 5773 5771 5769 5768 5766 5765 5763 5762 5761 5759 5758
5777 5777 5778 5778 5778 5779 5779 5779 5779 5779 5779 5778 5778 5778 5777 5777 5776 5775 5775 5774 5773 5773 5772 5772 5771 5771 5770 5770 5770 5769 5768 5767 5766 5765 5763 5761 5760 5758 5756 5755 5753 5752 5751 5749
5768 5769 5769 5770 5770 5770 5770 5770 5770 5770 5770 5769 5769 5769 5768 5768 5768 5767 5766 5765 5765 5765 5764 5764 5764 5763 5763 5762 5762 5761 5760 5759 5758 5757 5755 5753 5751 5750 5748 5747 5745 5743 5742 5740
5759 5760 5761 5761 5761 5761 5761 5761 5761 5761 5760 5760 5760 5760 5759 5759 5759 5758 5758 5757 5757 5756 5756 5756 5756 5755 5755 5755 5754 5753 5752 5751 5750 5748 5747 5745 5743 5741 5740 5738 5737 5735 5733 5731
5751 5751 5752 5752 5753 5753 5752 5752 5752 5752 5751 5751 5751 5751 5750 5750 5750 5749 5749 5748 5748 5748 5747 5747 5747 5747 5746 5746 5745 5744 5744 5742 5741 5739 5738 5736 5734 5732 5730 5729 5727 5726 5724 5722
5741 5742 5743 5743 5744 5744 5744 5744 5743 5743 5742 5742 5742 5742 5741 5741 5740 5740 5739 5739 5739 5738 5738 5738 5738 5737 5737 5736 5735 5734 5734 5732 5731 5730 5728 5726 5724 5723 5721 5719 5718 5716 5714 5712
5732 5733 5734 5734 5735 5735 5735 5735 5734 5734 5733 5733 5733 5733 5732 5732 5731 5731 5730 5729 5729 5729 5729 5728 5728 5727 5726 5726 5725 5724 5723 5722 5720 5719 5717 5716 5714 5712 5711 5709 5707 5705 5704 5702
5722 5723 5724 5725 5725 5725 5726 5725 5725 5725 5724 5724 5723 5723 5723 5723 5722 5722 5721 5720 5720 5719 5719 5718 5717 5717 5716 5715 5714 5713 5712 5710 5709 5708 5706 5705 5703 5701 5700 5698 5696 5694 5692 5690
5712 5714 5714 5715 5715 5716 5716 5716 5715 5715 5715 5714 5714 5714 5713 5713 5713 5712 5711 5710 5710 5709 5708 5707 5707 5706 5705 5704 5703 5701 5700 5699 5697 5696 5694 5693 5691 5690 5688 5686 5684 5683 5681 5679
5703 5704 5704 5705 5705 5706 5706 5706 5705 5705 5705 5704 5704 5703 5703 5703 5703 5702 5702 5701 5700 5699 5698 5697 5696 5695 5694 5692 5691 5690 5688 5687 5685 5683 5682 5680 5679 5677 5675 5674 5672 5670 5669 5667
5693 5694 5695 5695 5695 5695 5696 5695 5695 5695 5694 5694 5693 5693 5693 5693 5692 5691 5691 5690 5690 5688 5687 5686 5685 5684 5682 5681 5679 5677 5676 5674 5672 5671 5669 5667 5666 5664 5663 5661 5659 5658 5656 5654
5683 5683 5684 5684 5685 5685 5684 5684 5684 5684 5683 5683 5682 5682 5682 5682 5682 5681 5680 5679 5679 5677 5676 5675 5673 5672 5670 5668 5666 5664 5663 5661 5659 5658 5656 5654 5653 5651 5649 5648 5646 5645 5643 5642
5672 5673 5673 5673 5674 5673 5673 5673 5673 5673 5673 5672 5672 5671 5671 5671 5671 5670 5669 5668 5667 5666 5664 5663 5662 5660 5658 5656 5654 5651 5650 5648 5646 5644 5642 5641 5639 5638 5636 5634 5633 5632 5630 5629
5661 5662 5662 5663 5663 5663 5663 5662 5662 5662 5662 5661 5661 5660 5660 5660 5659 5658 5658 5657 5656 5654 5653 5651 5650 5648 5645 5643 5641 5639 5637 5634 5632 5630 5629 5627 5625 5624 5622 5621 5619 5618 5616 5615
5651 5652 5652 5652 5652 5652 5652 5651 5651 5651 5651 5650 5650 5649 5649 5648 5648 5647 5646 5645 5644 5643 5641 5639 5638 5635 5633 5631 5628 5626 5623 5621 5619 5616 5614 5613 5611 5609 5608 5607 5605 5604 5602 5601
5640 5641 5641 5642 5642 5641 5641 5641 5640 5640 5639 5639 5638 5638 5637 5636 5636 5635 5634 5633 5632 5630 5629 5627 5625 5622 5620 5618 5615 5613 5610 5607 5605 5603 5600 5598 5596 5595 5593 5592 5590 5589 5588 5586
5629 5630 5630 5631 5631 5630 5630 5630 5629 5629 5628 5627 5627 5626 5625 5625 5624 5623 5622 5621 5619 5618 5616 5614 5612 5609 5607 5604 5602 5599 5597 5594 5591 5589 5587 5584 5582 5580 5579 5577 5576 5574 5572 5571
Wind_Speed
18 18 18 17 17 16 16 16 17 16 16 16 17 16 16 15 14 14 14 14 14 14 14 14 14 13 13 13 13 13 14 13 13 12 12 12 13 13 13 12 12 12 13 13
19 19 19 19 18 18 17 17 17 17 16 16 17 16 17 16 15 15 14 14 14 15 15 15 14 14 14 14 14 14 14 14 14 14 14 14 14 14 14 14 14 14 14 14
21 21 20 19 18 18 18 18 19 19 18 18 18 17 17 17 16 16 15 14 15 15 15 15 15 15 15 15 15 15 15 15 15 15 15 15 15 16 15 16 16 16 16 16
22 22 21 19 20 19 19 19 19 19 18 18 18 18 18 18 17 16 16 15 15 15 16 16 15 15 15 15 15 15 16 16 16 16 16 17 17 17 17 17 18 18 18 17
23 22 20 20 20 19 18 18 18 19 18 18 18 18 18 19 18 17 17 17 16 16 16 16 16 16 16 16 16 16 17 17 17 18 18 19 19 19 19 19 19 19 19 18
23 22 21 20 20 19 19 18 17 17 17 17 17 18 17 18 18 18 18 18 18 17 17 18 18 18 18 18 18 18 19 19 19 20 20 20 20 21 21 20 20 20 19 18
24 24 22 22 22 20 20 19 19 19 18 18 17 18 18 19 19 19 20 20 20 19 19 19 20 20 20 20 20 20 20 20 21 21 22 21 21 21 21 21 21 20 20 20
25 26 24 23 22 22 22 21 21 20 20 20 19 19 20 20 20 20 21 21 21 21 21 21 21 21 21 21 21 21 21 21 21 21 22 23 22 23 23 23 22 21 21 22
26 26 26 25 25 24 24 24 23 23 22 22 22 22 21 21 21 21 22 22 22 23 23 23 23 23 23 22 23 23 22 22 22 22 22 23 23 23 24 24 23 23 23 23
26 26 27 26 26 26 26 25 25 25 24 23 23 23 23 23 23 23 24 24 24 24 24 24 24 24 24 24 24 23 23 22 22 22 23 23 24 24 24 25 25 24 25 25
27 26 27 27 27 27 27 27 27 26 26 25 25 25 25 25 25 25 25 25 25 25 25 25 25 25 24 24 24 24 23 23 24 24 24 24 24 25 26 26 26 26 26 26
27 27 27 27 27 27 27 27 27 27 28 28 27 26 26 26 26 26 26 26 26 25 25 25 25 25 25 25 25 24 24 24 25 25 25 26 26 26 26 26 27 27 27 27
28 27 28 28 28 28 28 27 28 28 28 28 28 28 27 27 27 27 27 27 27 27 26 26 26 26 26 25 25 25 25 25 26 26 26 26 26 26 26 27 28 28 28 28
28 28 28 27 28 27 28 28 29 29 29 29 28 28 28 28 29 28 28 28 28 28 28 28 28 27 27 27 26 26 26 27 27 27 28 28 28 27 27 28 28 28 29 29
29 29 28 28 27 27 27 27 27 28 29 29 29 29 29 29 29 29 29 29 29 29 29 29 29 28 28 28 28 28 28 29 29 29 29 29 29 29 29 29 29 30 30 30
30 29 28 28 27 28 27 26 26 26 26 27 28 28 29 29 28 29 29 29 29 30 29 30 30 30 30 30 30 31 31 31 31 31 31 31 31 31 31 31 31 30 31 31
30 29 28 28 27 27 27 27 27 26 26 27 27 27 27 27 27 28 29 29 29 29 29 30 31 31 32 32 32 33 33 34 34 34 34 34 34 33 33 32 33 32 32 32
30 30 29 29 28 28 28 28 27 27 27 27 27 28 28 27 27 28 28 29 29 29 30 30 31 32 32 33 33 34 34 35 35 36 36 36 36 35 34 34 34 34 34 34
31 30 30 30 29 29 29 29 28 28 28 29 29 29 29 29 29 28 28 29 30 31 31 31 32 32 33 34 34 35 35 36 37 37 37 37 36 37 36 36 36 36 36 36
31 31 31 31 31 31 31 31 31 30 30 30 30 30 31 31 30 30 30 30 31 31 32 32 33 33 33 34 35 36 36 37 37 38 38 39 38 38 38 37 37 36 36 36
32 32 32 33 33 33 33 32 32 31 31 31 31 31 31 31 32 32 32 32 32 33 33 33 34 34 35 36 36 37 37 37 38 38 38 38 39 39 39 38 38 37 37 38
32 32 33 34 34 34 34 33 33 33 32 32 32 32 32 32 32 32 32 32 33 33 34 34 35 36 36 37 37 38 39 39 39 39 39 39 39 39 39 39 38 38 39 39
33 32 32 33 33 33 33 33 32 32 32 32 32 32 32 32 32 32 32 32 33 33 34 34 35 36 37 38 38 39 39 39 40 40 40 40 40 40 39 39 40 40 40 40
33 32 32 32 32 32 32 32 32 32 32 32 32 32 32 32 33 33 33 34 34 34 34 35 35 36 37 38 38 39 39 40 41 41 41 41 41 41 41 40 41 41 41 41
33 32 32 32 32 32 32 33 32 32 32 33 33 33 33 34 34 34 35 35 35 35 36 36 37 38 38 39 39 40 40 40 41 41 41 42 42 42 42 42 42 42 42 42
32 33 33 33 33 33 33 33 32 32 32 33 33 33 34 34 35 35 36 36 36 36 37 37 38 39 39 40 40 40 40 41 41 41 41 42 42 42 42 42 42 42 42 42
33 33 34 34 34 34 34 33 33 33 34 34 34 34 34 34 35 36 36 37 38 38 38 38 39 39 39 39 40 40 40 40 40 40 40 41 41 42 42 43 43 43 43 43
Wind_Direction
263 266 270 271 271 273 275 276 277 277 277 279 280 278 278 276 275 274 273 273 273 273 275 276 277 279 282 283 285 288 290 289 288 287 285 285 285 285 285 281 279 277 276 275
264 267 269 270 270 271 272 274 276 276 276 277 277 277 276 274 272 272 272 274 274 274 273 274 276 278 280 282 284 285 285 285 285 283 282 284 286 284 283 282 279 278 277 277
264 266 268 269 270 270 272 275 275 276 275 275 275 276 274 271 269 271 271 271 271 272 272 273 276 277 279 280 282 284 283 282 282 283 283 283 285 284 283 283 281 279 278 276
264 266 266 269 269 271 272 273 273 273 273 274 277 275 273 271 269 270 269 270 271 269 269 272 275 276 277 280 282 282 282 282 282 283 284 284 281 282 282 282 281 278 274 274
264 264 265 267 269 270 272 273 273 273 274 276 277 277 273 271 270 269 269 270 271 269 269 273 273 275 277 281 282 282 281 281 282 285 284 285 282 281 281 281 281 279 275 273
262 262 263 265 266 269 271 271 273 275 275 275 275 274 272 269 269 269 269 270 271 272 271 272 275 276 278 281 282 282 281 282 282 284 285 285 283 284 283 282 282 281 278 274
260 261 262 263 265 267 268 269 271 273 275 275 273 272 270 268 268 270 271 272 273 272 273 274 275 276 277 280 283 282 281 281 281 284 286 285 286 287 286 283 282 280 278 276
259 260 262 264 265 266 267 268 270 272 274 273 273 271 270 269 269 271 273 272 273 273 274 275 275 276 276 278 282 282 282 283 283 284 284 284 284 285 284 283 280 278 277 277
258 260 262 262 265 267 267 268 269 270 270 272 272 272 272 272 272 274 274 273 274 274 275 276 276 276 277 278 280 282 283 284 284 284 285 284 285 285 284 283 280 278 277 277
257 259 260 261 263 265 267 268 269 269 270 270 271 271 271 271 273 275 276 275 275 275 275 276 277 276 277 277 278 280 282 283 284 285 285 284 283 284 283 280 279 279 279 278
256 258 259 261 263 264 265 267 268 268 269 270 270 271 271 272 273 275 276 275 275 274 274 275 276 276 277 278 278 279 281 282 283 285 285 285 283 284 282 280 279 279 279 279
257 259 261 262 263 264 265 266 267 268 270 270 271 271 271 272 273 274 274 275 275 275 274 274 275 275 276 277 278 279 281 282 283 284 285 285 284 284 283 282 281 280 280 280
258 260 263 265 266 266 265 266 267 269 270 271 270 271 272 273 273 273 273 273 274 275 275 275 275 275 275 275 277 277 279 281 282 283 285 286 284 283 283 283 283 282 280 279
259 261 264 267 267 267 268 268 269 270 271 271 271 272 272 272 273 273 272 273 273 274 274 274 274 275 275 275 276 277 277 280 281 283 285 286 286 284 283 283 283 282 281 280
260 262 265 266 267 267 269 270 270 272 272 272 272 273 272 271 271 271 271 271 272 273 274 273 274 274 274 274 275 276 277 279 280 282 284 286 286 286 285 285 284 283 282 281
262 264 266 266 268 268 269 270 270 272 273 273 273 274 273 273 272 271 271 272 272 272 273 273 273 273 274 274 275 276 277 278 280 281 283 285 285 284 284 285 285 285 284 283
261 262 264 266 268 268 269 271 272 273 274 274 274 274 275 274 274 274 273 273 273 273 273 272 273 273 274 274 276 277 278 278 279 280 281 283 283 283 283 283 284 284 284 284
260 262 262 264 266 266 268 269 272 272 273 273 272 272 274 275 274 274 274 273 273 274 275 275 274 273 274 275 276 278 278 279 279 279 280 281 282 283 283 283 283 283 284 283
261 261 262 263 265 266 268 269 271 272 273 273 271 270 270 272 273 274 274 274 273 274 275 275 274 274 275 277 278 279 279 280 281 281 281 281 282 283 283 282 282 283 283 282
261 262 263 264 265 266 267 269 271 272 272 272 272 271 271 271 271 273 274 275 275 276 277 277 276 276 277 278 279 280 280 282 282 282 282 282 281 281 282 282 282 282 282 282
262 263 264 265 266 267 268 270 271 271 271 272 272 272 271 270 271 272 273 274 275 276 277 278 278 278 279 279 280 281 282 283 283 283 283 283 282 281 281 281 281 282 282 282
262 264 266 267 267 267 268 269 270 270 271 272 272 271 271 270 271 272 274 275 276 276 277 278 279 280 281 281 282 282 282 283 283 283 283 282 282 282 281 280 280 281 282 282
263 265 267 268 267 267 267 268 269 269 270 272 272 271 270 270 271 273 274 276 277 278 279 280 280 281 282 283 284 284 284 284 283 283 282 282 281 282 281 280 279 279 280 281
263 266 267 267 267 267 267 268 269 270 271 272 272 271 271 270 270 272 274 276 278 279 280 281 282 283 284 284 284 285 284 284 284 283 282 282 281 281 281 281 280 279 279 280
263 264 265 266 268 268 268 269 270 271 272 272 272 272 271 271 272 272 274 275 277 278 280 281 282 284 285 285 286 286 286 286 285 284 283 281 281 281 280 280 280 280 280 279
263 264 264 266 268 270 271 272 271 270 271 272 272 273 273 273 273 273 274 275 277 279 280 282 283 284 284 285 286 286 287 288 287 286 284 283 283 281 280 279 279 279 280 280
263 264 265 267 269 270 271 272 272 272 272 272 272 273 274 274 275 275 276 277 278 280 281 282 284 285 285 286 286 286 287 288 288 287 286 284 283 282 281 280 279 279 279 279